PAY2089 CYWG-KORF

Flight info

Callsign PAY2089
Flight time 2h 37m
Altitude 35000
Route KARIS3/36 MUSIB DCT RHI DCT CRL J34 DJB J162 AIR J34 BUCKO DCT MOL DCT NUTIY
Aircraft B752/M-SDE2E3FGHIJ3J4J7RWXY/LB1

Departure

Time 2026-05-07 17:39
Airport Winnipeg / James Armstrong Richardson International Airport (CYWG)

Arrival

Time 2026-05-07 20:16
Airport Norfolk International Airport (KORF)
Time Latitude Longitude Altitude Speed Heading
2026-05-07 17:38 49.82728 -97.10047 6711 ft 283 kts 158°
2026-05-07 17:39 49.80916 -97.08817 7282 ft 292 kts 158°
2026-05-07 17:39 49.79050 -97.07549 7957 ft 297 kts 155°
2026-05-07 17:39 49.77358 -97.05670 8562 ft 303 kts 130°
2026-05-07 17:39 49.76074 -97.03093 9239 ft 307 kts 125°
2026-05-07 17:40 49.74794 -97.00455 9856 ft 313 kts 125°
2026-05-07 17:40 49.73480 -96.97720 10415 ft 322 kts 124°
2026-05-07 17:40 49.72112 -96.94846 10639 ft 343 kts 124°
2026-05-07 17:40 49.70667 -96.91804 10921 ft 362 kts 124°
2026-05-07 17:41 49.69144 -96.88598 11171 ft 381 kts 124°
2026-05-07 17:41 49.67552 -96.85248 11648 ft 393 kts 124°
2026-05-07 17:41 49.65940 -96.81861 12325 ft 398 kts 124°
2026-05-07 17:41 49.64292 -96.78400 12989 ft 402 kts 123°
2026-05-07 17:42 49.62617 -96.74887 13622 ft 407 kts 123°
2026-05-07 17:42 49.60943 -96.71379 14264 ft 411 kts 123°
2026-05-07 17:42 49.59248 -96.67829 14890 ft 415 kts 123°
2026-05-07 17:42 49.57541 -96.64261 15477 ft 419 kts 123°
2026-05-07 17:43 49.55790 -96.60607 16063 ft 422 kts 123°
2026-05-07 17:43 49.54049 -96.56978 16651 ft 425 kts 123°
2026-05-07 17:43 49.52296 -96.53328 17186 ft 428 kts 123°
2026-05-07 17:43 49.50535 -96.49667 17713 ft 431 kts 123°
2026-05-07 17:44 49.48736 -96.45933 18228 ft 435 kts 123°
2026-05-07 17:44 49.46928 -96.42186 18714 ft 439 kts 123°
2026-05-07 17:44 49.45113 -96.38428 19248 ft 441 kts 123°
2026-05-07 17:44 49.43282 -96.34641 19711 ft 445 kts 124°
2026-05-07 17:45 49.41416 -96.30791 20220 ft 448 kts 124°
2026-05-07 17:45 49.39552 -96.26947 20732 ft 450 kts 124°
2026-05-07 17:45 49.37680 -96.23094 21229 ft 452 kts 124°
2026-05-07 17:45 49.35806 -96.19244 21687 ft 455 kts 124°
2026-05-07 17:46 49.33907 -96.15346 22126 ft 458 kts 124°
2026-05-07 17:46 49.32000 -96.11439 22600 ft 460 kts 124°
2026-05-07 17:46 49.30084 -96.07517 22997 ft 464 kts 124°
2026-05-07 17:46 49.28155 -96.03577 23457 ft 466 kts 124°
2026-05-07 17:47 49.26199 -95.99584 23887 ft 468 kts 124°
2026-05-07 17:47 49.24244 -95.95601 24274 ft 471 kts 124°
2026-05-07 17:47 49.22271 -95.91589 24663 ft 474 kts 124°
2026-05-07 17:47 49.20299 -95.87585 25009 ft 477 kts 124°
2026-05-07 17:48 49.18300 -95.83531 25382 ft 479 kts 124°
2026-05-07 17:48 49.16298 -95.79478 25723 ft 482 kts 124°
2026-05-07 17:48 49.14288 -95.75414 26079 ft 484 kts 124°
2026-05-07 17:48 49.12239 -95.71277 26420 ft 487 kts 124°
2026-05-07 17:49 49.10206 -95.67178 26773 ft 489 kts 124°
2026-05-07 17:49 49.08152 -95.63044 26993 ft 494 kts 124°
2026-05-07 17:49 49.06083 -95.58886 27381 ft 495 kts 124°
2026-05-07 17:49 49.03983 -95.54671 27634 ft 499 kts 124°
2026-05-07 17:50 49.01897 -95.50495 27983 ft 500 kts 124°
2026-05-07 17:50 48.99783 -95.46265 28242 ft 504 kts 124°
2026-05-07 17:50 48.97633 -95.41974 28530 ft 507 kts 124°
2026-05-07 17:50 48.95490 -95.37701 28898 ft 508 kts 124°
2026-05-07 17:51 48.93361 -95.33463 29109 ft 512 kts 125°
2026-05-07 17:51 48.91189 -95.29147 29471 ft 512 kts 125°
2026-05-07 17:51 48.88998 -95.24800 29736 ft 515 kts 124°
2026-05-07 17:51 48.86824 -95.20493 29969 ft 518 kts 125°
2026-05-07 17:52 48.84605 -95.16104 30255 ft 520 kts 125°
2026-05-07 17:52 48.82436 -95.11822 30495 ft 522 kts 125°
2026-05-07 17:52 48.80205 -95.07423 30715 ft 524 kts 125°
2026-05-07 17:52 48.77993 -95.03069 31012 ft 524 kts 124°
2026-05-07 17:53 48.75771 -94.98704 31225 ft 524 kts 125°
2026-05-07 17:53 48.73548 -94.94343 31410 ft 525 kts 125°
2026-05-07 17:53 48.71328 -94.89995 31602 ft 524 kts 125°
2026-05-07 17:53 48.69094 -94.85626 31770 ft 525 kts 125°
2026-05-07 17:54 48.66858 -94.81260 31945 ft 525 kts 125°
2026-05-07 17:54 48.64624 -94.76907 32084 ft 526 kts 125°
2026-05-07 17:54 48.62412 -94.72602 32285 ft 525 kts 125°
2026-05-07 17:54 48.60164 -94.68232 32441 ft 526 kts 125°
2026-05-07 17:55 48.57918 -94.63878 32645 ft 524 kts 125°
2026-05-07 17:55 48.55703 -94.59588 32817 ft 524 kts 125°
2026-05-07 17:55 48.53450 -94.55231 32986 ft 523 kts 125°
2026-05-07 17:55 48.51241 -94.50968 33183 ft 522 kts 125°
2026-05-07 17:56 48.49003 -94.46652 33313 ft 523 kts 125°
2026-05-07 17:56 48.46759 -94.42336 33529 ft 521 kts 125°
2026-05-07 17:56 48.44553 -94.38097 33682 ft 521 kts 125°
2026-05-07 17:56 48.42316 -94.33807 33864 ft 521 kts 126°
2026-05-07 17:57 48.40054 -94.29474 34040 ft 520 kts 126°
2026-05-07 17:57 48.37832 -94.25227 34274 ft 518 kts 126°
2026-05-07 17:57 48.35605 -94.20974 34417 ft 518 kts 127°
2026-05-07 17:57 48.33390 -94.16753 34609 ft 516 kts 127°
2026-05-07 17:58 48.31183 -94.12553 34775 ft 515 kts 127°
2026-05-07 17:58 48.28962 -94.08335 34854 ft 510 kts 127°
2026-05-07 17:58 48.24588 -94.00043 34870 ft 512 kts 127°
2026-05-07 17:59 48.20150 -93.91654 34864 ft 513 kts 127°
2026-05-07 17:59 48.15748 -93.83361 34870 ft 511 kts 127°
2026-05-07 18:00 48.11316 -93.75038 34861 ft 511 kts 127°
2026-05-07 18:00 48.06868 -93.66710 34871 ft 512 kts 127°
2026-05-07 18:01 48.02446 -93.58456 34867 ft 512 kts 127°
2026-05-07 18:01 47.97996 -93.50174 34868 ft 511 kts 127°
2026-05-07 18:02 47.91317 -93.37790 34865 ft 512 kts 127°
2026-05-07 18:03 47.86842 -93.29527 34856 ft 511 kts 128°
2026-05-07 18:03 47.82383 -93.21317 34859 ft 512 kts 128°
2026-05-07 18:04 47.77923 -93.13130 34853 ft 512 kts 128°
2026-05-07 18:04 47.73442 -93.04929 34848 ft 511 kts 128°
2026-05-07 18:05 47.68969 -92.96769 34852 ft 512 kts 128°
2026-05-07 18:05 47.64477 -92.88597 34854 ft 511 kts 128°
2026-05-07 18:06 47.59978 -92.80437 34854 ft 511 kts 129°
2026-05-07 18:06 47.55507 -92.72353 34857 ft 511 kts 129°
2026-05-07 18:07 47.50995 -92.64220 34864 ft 511 kts 128°
2026-05-07 18:07 47.46508 -92.56154 34855 ft 510 kts 129°
2026-05-07 18:08 47.42021 -92.48113 34863 ft 510 kts 128°
2026-05-07 18:08 47.37512 -92.40056 34863 ft 510 kts 129°
2026-05-07 18:09 47.32977 -92.31976 34853 ft 510 kts 129°
2026-05-07 18:09 47.28463 -92.23959 34845 ft 510 kts 130°
2026-05-07 18:10 47.23949 -92.15964 34836 ft 509 kts 130°
2026-05-07 18:10 47.19449 -92.08019 34842 ft 511 kts 130°
2026-05-07 18:11 47.14904 -92.00016 34842 ft 511 kts 130°
2026-05-07 18:11 47.10350 -91.92021 34852 ft 510 kts 130°
2026-05-07 18:12 47.05796 -91.84049 34870 ft 510 kts 130°
2026-05-07 18:12 47.01255 -91.76125 34869 ft 509 kts 130°
2026-05-07 18:13 46.96721 -91.68234 34876 ft 508 kts 130°
2026-05-07 18:13 46.92183 -91.60360 34878 ft 509 kts 130°
2026-05-07 18:14 46.87620 -91.52464 34874 ft 510 kts 130°
2026-05-07 18:14 46.83029 -91.44544 34878 ft 510 kts 130°
2026-05-07 18:15 46.78463 -91.36688 34876 ft 510 kts 130°
2026-05-07 18:15 46.73860 -91.28793 34858 ft 510 kts 131°
2026-05-07 18:16 46.69283 -91.20965 34855 ft 510 kts 131°
2026-05-07 18:16 46.64698 -91.13145 34852 ft 509 kts 131°
2026-05-07 18:17 46.60089 -91.05308 34867 ft 509 kts 131°
2026-05-07 18:17 46.55499 -90.97524 34888 ft 509 kts 131°
2026-05-07 18:18 46.50891 -90.89731 34891 ft 508 kts 131°
2026-05-07 18:18 46.46290 -90.81974 34879 ft 510 kts 131°
2026-05-07 18:19 46.41663 -90.74194 34876 ft 509 kts 131°
2026-05-07 18:19 46.37078 -90.66506 34864 ft 508 kts 131°
2026-05-07 18:20 46.32438 -90.58749 34862 ft 509 kts 131°
2026-05-07 18:20 46.27822 -90.51053 34858 ft 509 kts 131°
2026-05-07 18:21 46.23192 -90.43355 34855 ft 508 kts 131°
2026-05-07 18:21 46.18556 -90.35669 34858 ft 508 kts 131°
2026-05-07 18:22 46.13892 -90.27957 34846 ft 508 kts 132°
2026-05-07 18:22 46.09284 -90.20361 34849 ft 507 kts 132°
2026-05-07 18:23 46.04641 -90.12727 34849 ft 508 kts 132°
2026-05-07 18:23 45.99967 -90.05064 34848 ft 508 kts 132°
2026-05-07 18:24 45.95331 -89.97484 34858 ft 508 kts 132°
2026-05-07 18:24 45.90689 -89.89914 34858 ft 509 kts 132°
2026-05-07 18:25 45.85988 -89.82271 34859 ft 508 kts 132°
2026-05-07 18:25 45.81306 -89.74679 34865 ft 508 kts 132°
2026-05-07 18:26 45.76643 -89.67138 34861 ft 507 kts 132°
2026-05-07 18:26 45.71979 -89.59618 34871 ft 508 kts 132°
2026-05-07 18:27 45.67297 -89.52087 34872 ft 508 kts 132°
2026-05-07 18:27 45.62623 -89.44470 34880 ft 508 kts 128°
2026-05-07 18:28 45.58340 -89.36464 34871 ft 509 kts 128°
2026-05-07 18:28 45.54055 -89.28508 34861 ft 508 kts 128°
2026-05-07 18:29 45.49729 -89.20509 34857 ft 508 kts 129°
2026-05-07 18:29 45.45419 -89.12566 34846 ft 508 kts 129°
2026-05-07 18:30 45.41113 -89.04655 34842 ft 508 kts 129°
2026-05-07 18:30 45.36794 -88.96742 34844 ft 507 kts 129°
2026-05-07 18:31 45.32460 -88.88824 34842 ft 507 kts 129°
2026-05-07 18:31 45.28155 -88.80981 34851 ft 507 kts 129°
2026-05-07 18:32 45.23799 -88.73068 34855 ft 507 kts 129°
2026-05-07 18:32 45.19484 -88.65247 34861 ft 507 kts 129°
2026-05-07 18:33 45.15132 -88.57386 34868 ft 507 kts 129°
2026-05-07 18:33 45.10796 -88.49571 34877 ft 506 kts 129°
2026-05-07 18:34 45.06427 -88.41722 34888 ft 507 kts 129°
2026-05-07 18:34 45.02085 -88.33943 34890 ft 507 kts 130°
2026-05-07 18:35 44.97715 -88.26131 34882 ft 506 kts 130°
2026-05-07 18:35 44.93340 -88.18334 34892 ft 506 kts 130°
2026-05-07 18:36 44.88982 -88.10590 34899 ft 506 kts 130°
2026-05-07 18:36 44.84603 -88.02827 34902 ft 506 kts 130°
2026-05-07 18:37 44.80215 -87.95072 34911 ft 506 kts 130°
2026-05-07 18:37 44.75844 -87.87366 34917 ft 507 kts 130°
2026-05-07 18:38 44.71460 -87.79657 34912 ft 507 kts 130°
2026-05-07 18:38 44.67050 -87.71925 34906 ft 507 kts 130°
2026-05-07 18:39 44.62657 -87.64243 34910 ft 507 kts 130°
2026-05-07 18:39 44.58232 -87.56526 34916 ft 507 kts 130°
2026-05-07 18:40 44.53835 -87.48878 34921 ft 508 kts 130°
2026-05-07 18:40 44.49423 -87.41224 34924 ft 507 kts 131°
2026-05-07 18:41 44.45005 -87.33580 34917 ft 507 kts 131°
2026-05-07 18:41 44.40564 -87.25919 34916 ft 506 kts 131°
2026-05-07 18:42 44.36117 -87.18266 34915 ft 506 kts 131°
2026-05-07 18:42 44.31697 -87.10682 34916 ft 507 kts 131°
2026-05-07 18:43 44.27246 -87.03062 34928 ft 507 kts 131°
2026-05-07 18:43 44.22803 -86.95476 34929 ft 506 kts 132°
2026-05-07 18:44 44.18337 -86.87874 34925 ft 507 kts 132°
2026-05-07 18:44 44.13877 -86.80299 34929 ft 509 kts 132°
2026-05-07 18:45 44.09396 -86.72709 34928 ft 508 kts 132°
2026-05-07 18:45 44.04922 -86.65152 34932 ft 509 kts 132°
2026-05-07 18:46 44.00435 -86.57591 34940 ft 508 kts 132°
2026-05-07 18:46 43.95937 -86.50034 34951 ft 508 kts 132°
2026-05-07 18:47 43.91444 -86.42503 34958 ft 509 kts 132°
2026-05-07 18:47 43.86888 -86.34888 34948 ft 509 kts 133°
2026-05-07 18:48 43.82350 -86.27321 34937 ft 509 kts 133°
2026-05-07 18:48 43.77840 -86.19822 34933 ft 510 kts 133°
2026-05-07 18:49 43.73307 -86.12303 34940 ft 510 kts 133°
2026-05-07 18:49 43.68788 -86.04826 34934 ft 509 kts 134°
2026-05-07 18:50 43.64246 -85.97331 34938 ft 511 kts 134°
2026-05-07 18:50 43.59684 -85.89825 34945 ft 511 kts 134°
2026-05-07 18:51 43.55110 -85.82317 34948 ft 511 kts 134°
2026-05-07 18:51 43.50559 -85.74866 34946 ft 511 kts 134°
2026-05-07 18:52 43.45965 -85.67364 34942 ft 511 kts 134°
2026-05-07 18:52 43.41398 -85.59926 34943 ft 511 kts 134°
2026-05-07 18:53 43.36807 -85.52467 34946 ft 512 kts 134°
2026-05-07 18:53 43.32199 -85.44999 34939 ft 512 kts 134°
2026-05-07 18:54 43.27612 -85.37585 34942 ft 512 kts 134°
2026-05-07 18:54 43.23003 -85.30154 34933 ft 511 kts 135°
2026-05-07 18:55 43.18372 -85.22707 34937 ft 513 kts 135°
2026-05-07 18:55 43.13737 -85.15273 34936 ft 512 kts 135°
2026-05-07 18:56 43.09130 -85.07903 34936 ft 513 kts 136°
2026-05-07 18:56 43.04499 -85.00511 34938 ft 513 kts 136°
2026-05-07 18:57 42.99851 -84.93115 34931 ft 513 kts 136°
2026-05-07 18:57 42.95187 -84.85706 34942 ft 513 kts 136°
2026-05-07 18:58 42.90567 -84.78392 34943 ft 514 kts 136°
2026-05-07 18:58 42.85843 -84.70929 34947 ft 516 kts 136°
2026-05-07 18:59 42.81146 -84.63527 34959 ft 516 kts 136°
2026-05-07 18:59 42.76479 -84.56189 34966 ft 515 kts 136°
2026-05-07 19:00 42.71752 -84.48779 34967 ft 517 kts 136°
2026-05-07 19:00 42.67057 -84.41436 34966 ft 517 kts 137°
2026-05-07 19:01 42.62333 -84.34066 34962 ft 516 kts 137°
2026-05-07 19:01 42.57617 -84.26730 34948 ft 517 kts 137°
2026-05-07 19:02 42.52896 -84.19403 34953 ft 517 kts 138°
2026-05-07 19:02 42.48139 -84.12038 34952 ft 519 kts 138°
2026-05-07 19:03 42.43393 -84.04707 34943 ft 519 kts 138°
2026-05-07 19:03 42.38647 -83.97395 34959 ft 518 kts 138°
2026-05-07 19:04 42.33890 -83.90087 34958 ft 518 kts 138°
2026-05-07 19:04 42.29098 -83.82745 34963 ft 520 kts 138°
2026-05-07 19:05 42.24326 -83.75444 34962 ft 520 kts 138°
2026-05-07 19:05 42.19530 -83.68131 34974 ft 523 kts 139°
2026-05-07 19:06 42.14705 -83.60788 34963 ft 522 kts 139°
2026-05-07 19:06 42.07476 -83.49827 34961 ft 523 kts 139°
2026-05-07 19:07 42.02806 -83.42227 34979 ft 532 kts 130°
2026-05-07 19:07 41.98620 -83.34026 34956 ft 533 kts 132°
2026-05-07 19:08 41.94386 -83.25888 34947 ft 531 kts 132°
2026-05-07 19:08 41.90158 -83.17824 34945 ft 532 kts 133°
2026-05-07 19:09 41.85870 -83.09675 34941 ft 532 kts 133°
2026-05-07 19:09 41.81603 -83.01598 34949 ft 532 kts 133°
2026-05-07 19:10 41.77330 -82.93529 34949 ft 535 kts 133°
2026-05-07 19:10 41.73015 -82.85400 34943 ft 534 kts 133°
2026-05-07 19:11 41.68716 -82.77325 34959 ft 534 kts 133°
2026-05-07 19:11 41.64392 -82.69228 34956 ft 535 kts 133°
2026-05-07 19:12 41.60078 -82.61169 34952 ft 534 kts 133°
2026-05-07 19:12 41.55740 -82.53090 34950 ft 537 kts 133°
2026-05-07 19:13 41.51424 -82.45068 34954 ft 534 kts 133°
2026-05-07 19:13 41.47063 -82.36990 34958 ft 537 kts 133°
2026-05-07 19:14 41.42690 -82.28900 34946 ft 534 kts 134°
2026-05-07 19:14 41.38348 -82.20901 34964 ft 535 kts 135°
2026-05-07 19:15 41.33316 -82.13873 34965 ft 514 kts 151°
2026-05-07 19:15 41.27723 -82.07991 34954 ft 512 kts 152°
2026-05-07 19:16 41.22099 -82.02176 34965 ft 515 kts 152°
2026-05-07 19:16 41.16461 -81.96386 34947 ft 510 kts 152°
2026-05-07 19:17 41.10840 -81.90647 34945 ft 512 kts 153°
2026-05-07 19:17 41.05191 -81.84895 34948 ft 512 kts 153°
2026-05-07 19:18 40.99520 -81.79132 34950 ft 512 kts 153°
2026-05-07 19:18 40.93892 -81.73428 34955 ft 511 kts 153°
2026-05-07 19:19 40.88232 -81.67705 34959 ft 512 kts 153°
2026-05-07 19:19 40.82587 -81.62010 34960 ft 513 kts 153°
2026-05-07 19:20 40.76921 -81.56305 34949 ft 513 kts 153°
2026-05-07 19:20 40.71243 -81.50600 34946 ft 513 kts 153°
2026-05-07 19:21 40.65574 -81.44917 34944 ft 511 kts 153°
2026-05-07 19:21 40.59883 -81.39229 34951 ft 515 kts 153°
2026-05-07 19:22 40.54205 -81.33559 34937 ft 512 kts 154°
2026-05-07 19:22 40.48546 -81.27921 34921 ft 508 kts 154°
2026-05-07 19:23 40.42926 -81.22341 34923 ft 511 kts 154°
2026-05-07 19:23 40.37246 -81.16711 34918 ft 514 kts 154°
2026-05-07 19:24 40.31539 -81.11063 34909 ft 512 kts 154°
2026-05-07 19:24 40.25825 -81.05424 34914 ft 514 kts 154°
2026-05-07 19:25 40.20126 -80.99808 34921 ft 513 kts 154°
2026-05-07 19:25 40.14445 -80.94222 34912 ft 513 kts 154°
2026-05-07 19:26 40.08739 -80.88625 34911 ft 512 kts 154°
2026-05-07 19:26 40.03014 -80.82993 34916 ft 519 kts 151°
2026-05-07 19:27 40.00342 -80.79775 34926 ft 530 kts 143°
2026-05-07 19:27 39.97812 -80.76271 34912 ft 530 kts 143°
2026-05-07 19:27 39.92780 -80.69307 34908 ft 527 kts 143°
2026-05-07 19:28 39.87727 -80.62315 34730 ft 531 kts 143°
2026-05-07 19:28 39.85197 -80.58810 34892 ft 528 kts 143°
2026-05-07 19:28 39.82712 -80.55375 34844 ft 528 kts 143°
2026-05-07 19:29 39.77673 -80.48416 34938 ft 528 kts 143°
2026-05-07 19:29 39.72627 -80.41467 34931 ft 532 kts 143°
2026-05-07 19:30 39.67539 -80.34469 34925 ft 531 kts 144°
2026-05-07 19:30 39.62493 -80.27547 34901 ft 527 kts 144°
2026-05-07 19:31 39.57462 -80.20666 34911 ft 530 kts 144°
2026-05-07 19:31 39.52389 -80.13737 34912 ft 530 kts 144°
2026-05-07 19:32 39.47300 -80.06805 34908 ft 529 kts 144°
2026-05-07 19:32 39.42226 -79.99908 34927 ft 530 kts 144°
2026-05-07 19:33 39.37167 -79.93043 34909 ft 527 kts 144°
2026-05-07 19:33 39.32068 -79.86302 34908 ft 521 kts 150°
2026-05-07 19:34 39.29252 -79.83481 34908 ft 505 kts 160°
2026-05-07 19:34 39.26265 -79.81296 34905 ft 488 kts 168°
2026-05-07 19:34 39.20059 -79.77774 34897 ft 487 kts 171°
2026-05-07 19:35 39.13866 -79.74420 34894 ft 480 kts 171°
2026-05-07 19:35 39.07711 -79.71165 34891 ft 482 kts 172°
2026-05-07 19:36 39.01477 -79.67892 34889 ft 480 kts 172°
2026-05-07 19:36 38.98377 -79.66270 35105 ft 479 kts 172°
2026-05-07 19:36 38.95300 -79.64669 34885 ft 482 kts 172°
2026-05-07 19:37 38.89082 -79.61429 34893 ft 480 kts 172°
2026-05-07 19:37 38.82882 -79.58209 34898 ft 481 kts 172°
2026-05-07 19:38 38.76732 -79.55016 34880 ft 477 kts 172°
2026-05-07 19:38 38.70524 -79.51807 34889 ft 480 kts 172°
2026-05-07 19:39 38.64356 -79.48622 34889 ft 483 kts 172°
2026-05-07 19:39 38.58138 -79.45412 34891 ft 479 kts 172°
2026-05-07 19:40 38.51983 -79.42247 34898 ft 479 kts 172°
2026-05-07 19:40 38.45779 -79.39062 34901 ft 481 kts 172°
2026-05-07 19:41 38.39589 -79.35886 34902 ft 477 kts 173°
2026-05-07 19:41 38.33431 -79.32732 34882 ft 474 kts 173°
2026-05-07 19:42 38.27287 -79.29597 34884 ft 474 kts 173°
2026-05-07 19:42 38.21162 -79.26475 34877 ft 475 kts 173°
2026-05-07 19:43 38.15042 -79.23358 34877 ft 473 kts 174°
2026-05-07 19:43 38.08933 -79.20257 34879 ft 474 kts 174°
2026-05-07 19:44 38.02820 -79.17156 34874 ft 474 kts 173°
2026-05-07 19:44 37.96651 -79.14001 34873 ft 481 kts 170°
2026-05-07 19:45 37.93670 -79.11958 34895 ft 500 kts 161°
2026-05-07 19:45 37.90834 -79.09267 34891 ft 518 kts 152°
2026-05-07 19:45 37.88240 -79.05967 34900 ft 536 kts 142°
2026-05-07 19:45 37.85982 -79.02158 34905 ft 552 kts 133°
2026-05-07 19:46 37.84092 -78.97856 34904 ft 564 kts 124°
2026-05-07 19:46 37.82536 -78.93260 34900 ft 565 kts 122°
2026-05-07 19:46 37.79241 -78.84331 34899 ft 562 kts 126°
2026-05-07 19:47 37.75748 -78.75481 34899 ft 564 kts 126°
2026-05-07 19:47 37.72205 -78.66701 34902 ft 561 kts 127°
2026-05-07 19:48 37.68642 -78.57961 34910 ft 563 kts 127°
2026-05-07 19:48 37.65022 -78.49116 34183 ft 568 kts 127°
2026-05-07 19:49 37.63261 -78.44807 33479 ft 553 kts 127°
2026-05-07 19:49 37.61484 -78.40486 32772 ft 550 kts 127°
2026-05-07 19:49 37.59721 -78.36209 32077 ft 550 kts 127°
2026-05-07 19:49 37.57970 -78.31959 31343 ft 548 kts 128°
2026-05-07 19:50 37.56213 -78.27708 30588 ft 547 kts 128°
2026-05-07 19:50 37.54439 -78.23417 29838 ft 548 kts 128°
2026-05-07 19:50 37.52677 -78.19163 29095 ft 549 kts 127°
2026-05-07 19:50 37.50935 -78.14960 28363 ft 546 kts 128°
2026-05-07 19:51 37.49188 -78.10751 27640 ft 545 kts 128°
2026-05-07 19:51 37.47420 -78.06494 26895 ft 544 kts 127°
2026-05-07 19:51 37.45677 -78.02309 26161 ft 542 kts 127°
2026-05-07 19:51 37.43940 -77.98138 25430 ft 540 kts 127°
2026-05-07 19:52 37.42215 -77.94000 24706 ft 537 kts 127°
2026-05-07 19:52 37.40468 -77.89821 23984 ft 535 kts 127°
2026-05-07 19:52 37.38754 -77.85720 23277 ft 531 kts 127°
2026-05-07 19:52 37.37075 -77.81694 22480 ft 509 kts 127°
2026-05-07 19:53 37.35480 -77.77872 21766 ft 484 kts 127°
2026-05-07 19:53 37.33945 -77.74213 21130 ft 462 kts 127°
2026-05-07 19:53 37.32480 -77.70735 20543 ft 454 kts 127°
2026-05-07 19:53 37.30993 -77.67217 19993 ft 455 kts 126°
2026-05-07 19:54 37.29489 -77.63663 19424 ft 460 kts 125°
2026-05-07 19:54 37.28005 -77.60141 18789 ft 455 kts 125°
2026-05-07 19:54 37.26542 -77.56669 18164 ft 445 kts 124°
2026-05-07 19:54 37.25106 -77.53265 17556 ft 436 kts 124°
2026-05-07 19:55 37.23704 -77.49950 16997 ft 426 kts 124°
2026-05-07 19:55 37.22328 -77.46700 16449 ft 420 kts 124°
2026-05-07 19:55 37.20977 -77.43515 15932 ft 418 kts 124°
2026-05-07 19:55 37.19609 -77.40299 15391 ft 418 kts 123°
2026-05-07 19:56 37.18252 -77.37102 14848 ft 415 kts 123°
2026-05-07 19:56 37.16898 -77.33914 14278 ft 409 kts 124°
2026-05-07 19:56 37.15578 -77.30810 13707 ft 403 kts 123°
2026-05-07 19:56 37.14257 -77.27712 13148 ft 398 kts 124°
2026-05-07 19:57 37.12969 -77.24689 12604 ft 394 kts 123°
2026-05-07 19:57 37.11689 -77.21690 12070 ft 389 kts 123°
2026-05-07 19:57 37.10448 -77.18778 11482 ft 371 kts 123°
2026-05-07 19:57 37.09266 -77.16006 11036 ft 349 kts 123°
2026-05-07 19:58 37.08150 -77.13395 10647 ft 329 kts 123°
2026-05-07 19:58 37.07101 -77.10945 10294 ft 316 kts 123°
2026-05-07 19:58 37.06067 -77.08540 9986 ft 316 kts 123°
2026-05-07 19:58 37.05017 -77.06099 9683 ft 319 kts 122°
2026-05-07 19:59 37.03975 -77.03672 9366 ft 315 kts 122°
2026-05-07 19:59 37.02946 -77.01273 9050 ft 310 kts 122°
2026-05-07 19:59 37.01934 -76.98920 8747 ft 305 kts 122°
2026-05-07 19:59 37.00935 -76.96595 8443 ft 300 kts 122°
2026-05-07 20:00 36.99948 -76.94302 8149 ft 296 kts 122°
2026-05-07 20:00 36.98983 -76.92062 7865 ft 291 kts 122°
2026-05-07 20:00 36.98026 -76.89842 7590 ft 287 kts 122°
2026-05-07 20:00 36.97088 -76.87668 7327 ft 283 kts 121°
2026-05-07 20:01 36.96158 -76.85512 7062 ft 279 kts 121°
2026-05-07 20:01 36.95265 -76.83443 6817 ft 264 kts 121°
2026-05-07 20:01 36.94432 -76.81506 6605 ft 243 kts 122°
2026-05-07 20:01 36.93665 -76.79730 6421 ft 224 kts 122°
2026-05-07 20:02 36.92947 -76.78072 6288 ft 210 kts 121°
2026-05-07 20:02 36.92263 -76.76492 6131 ft 201 kts 122°
2026-05-07 20:02 36.91610 -76.74985 5997 ft 193 kts 121°
2026-05-07 20:02 36.90993 -76.73560 5907 ft 180 kts 121°
2026-05-07 20:03 36.90416 -76.72229 5753 ft 170 kts 120°
2026-05-07 20:03 36.89865 -76.70959 5591 ft 161 kts 120°
2026-05-07 20:03 36.89301 -76.69663 5552 ft 178 kts 120°
2026-05-07 20:03 36.88683 -76.68244 5557 ft 193 kts 120°
2026-05-07 20:04 36.88028 -76.66735 5510 ft 200 kts 120°
2026-05-07 20:04 36.87391 -76.65264 5324 ft 181 kts 120°
2026-05-07 20:04 36.86810 -76.63927 5198 ft 173 kts 120°
2026-05-07 20:04 36.86231 -76.62597 5107 ft 176 kts 120°
2026-05-07 20:05 36.85650 -76.61260 5009 ft 176 kts 119°
2026-05-07 20:05 36.85062 -76.59910 4901 ft 174 kts 118°
2026-05-07 20:05 36.84483 -76.58580 4794 ft 175 kts 118°
2026-05-07 20:05 36.83905 -76.57254 4694 ft 173 kts 118°
2026-05-07 20:06 36.83332 -76.55937 4582 ft 172 kts 117°
2026-05-07 20:06 36.82766 -76.54639 4481 ft 171 kts 117°
2026-05-07 20:06 36.82199 -76.53336 4375 ft 171 kts 117°
2026-05-07 20:06 36.81631 -76.52035 4274 ft 170 kts 116°
2026-05-07 20:07 36.81065 -76.50738 4175 ft 170 kts 116°
2026-05-07 20:07 36.80504 -76.49453 4044 ft 169 kts 115°
2026-05-07 20:07 36.79942 -76.48165 3908 ft 168 kts 115°
2026-05-07 20:07 36.79390 -76.46901 3774 ft 166 kts 115°
2026-05-07 20:08 36.78843 -76.45651 3635 ft 161 kts 114°
2026-05-07 20:08 36.78310 -76.44433 3474 ft 154 kts 114°
2026-05-07 20:08 36.77813 -76.43300 3325 ft 147 kts 114°
2026-05-07 20:08 36.77337 -76.42213 3159 ft 140 kts 112°
2026-05-07 20:09 36.76876 -76.41159 3022 ft 139 kts 112°
2026-05-07 20:09 36.76413 -76.40097 2908 ft 140 kts 112°
2026-05-07 20:09 36.75947 -76.39033 2735 ft 138 kts 112°
2026-05-07 20:10 36.75034 -76.36949 2417 ft 136 kts 111°
2026-05-07 20:10 36.74593 -76.35912 2267 ft 134 kts 104°
2026-05-07 20:10 36.74568 -76.34836 2133 ft 122 kts 68°
2026-05-07 20:10 36.74981 -76.33948 2096 ft 120 kts 39°
2026-05-07 20:11 36.75652 -76.33306 2078 ft 121 kts 39°
2026-05-07 20:11 36.76311 -76.32646 2012 ft 121 kts 39°
2026-05-07 20:11 36.76955 -76.32011 1957 ft 118 kts 38°
2026-05-07 20:11 36.77611 -76.31369 1923 ft 119 kts 39°
2026-05-07 20:12 36.78259 -76.30739 1859 ft 117 kts 38°
2026-05-07 20:12 36.78908 -76.30109 1817 ft 118 kts 38°
2026-05-07 20:12 36.79554 -76.29486 1783 ft 118 kts 38°
2026-05-07 20:12 36.80207 -76.28857 1737 ft 117 kts 39°
2026-05-07 20:13 36.80858 -76.28230 1706 ft 118 kts 38°
2026-05-07 20:13 36.81512 -76.27600 1672 ft 119 kts 38°
2026-05-07 20:13 36.82169 -76.26971 1618 ft 119 kts 38°
2026-05-07 20:13 36.82831 -76.26336 1521 ft 122 kts 38°
2026-05-07 20:14 36.83507 -76.25688 1352 ft 121 kts 38°
2026-05-07 20:14 36.84173 -76.25050 1188 ft 121 kts 38°
2026-05-07 20:14 36.84834 -76.24416 1041 ft 121 kts 39°
2026-05-07 20:14 36.85504 -76.23775 878 ft 122 kts 38°
2026-05-07 20:15 36.86177 -76.23128 712 ft 122 kts 39°
2026-05-07 20:15 36.86858 -76.22476 548 ft 123 kts 39°
2026-05-07 20:15 36.87543 -76.21819 380 ft 124 kts 39°
2026-05-07 20:15 36.88228 -76.21162 211 ft 124 kts 39°
2026-05-07 20:16 36.88925 -76.20507 45 ft 126 kts 40°
2026-05-07 20:16 36.89496 -76.19948 30 ft 62 kts 42°
2026-05-07 20:16 36.89570 -76.19868 30 ft 6 kts 22°
2026-05-07 20:16 36.89668 -76.19841 30 ft 13 kts 10°
2026-05-07 20:17 36.89722 -76.19850 30 ft 0 kts 341°
2026-05-07 20:17 36.89741 -76.19873 30 ft 8 kts 295°
2026-05-07 20:17 36.89740 -76.19954 30 ft 10 kts 272°
2026-05-07 20:17 36.89762 -76.20046 30 ft 7 kts 290°
2026-05-07 20:18 36.89751 -76.20092 30 ft 3 kts 221°
2026-05-07 20:18 36.89733 -76.20113 30 ft 2 kts 226°
2026-05-07 20:18 36.89725 -76.20123 30 ft 0 kts 227°
2026-05-07 20:18 36.89722 -76.20129 30 ft 0 kts 227°